Regional Weather Roundup
Issued by NWS Memphis, TN

Home | Current Version | Previous Version | Text Only | Print | Product List | Glossary On
Versions: 1 2 3 4 5 6 7 8 9 10 11 12 13 14 15 16 17 18 19 20 21 22 23 24 25 26 27 28 29 30 31 32 33 34 35 36 37 38 39 40 41 42 43 44 45 46 47 48 49 50
000
ASUS44 KMEG 260710
RWRMEG
MEMPHIS CWA HOURLY WEATHER ROUNDUP
NATIONAL WEATHER SERVICE MEMPHIS TN
200 AM CDT SAT JUL 26 2014

...WEST TENNESSEE...

CITY           SKY/WX    TMP DP  RH WIND       PRES   REMARKS
MEMPHIS INTL   PTCLDY    72  65  78 S6        29.99F
NWS MEMPHIS      N/A     70 N/A N/A MISG        N/A
JACKSON        CLEAR     66  63  90 CALM      30.00S
LEXINGTON      CLEAR     64  64 100 CALM      30.00F
SAVANNAH       CLEAR     64  64 100 CALM      30.02S
DYERSBURG      CLEAR     70  57  64 CALM      29.99F
UNION CITY     CLEAR     64  64 100 CALM      29.98F
PARIS          CLEAR     62  60  93 CALM      30.01S


...EASTERN ARKANSAS...

CITY           SKY/WX    TMP DP  RH WIND       PRES   REMARKS
JONESBORO      CLEAR     73  67  81 SW8       29.96F
WEST MEMPHIS   PTCLDY    71  68  90 S5        29.97F
BATESVILLE     CLEAR     75  72  88 S3        29.97S
NEWPORT        CLEAR     73  71  93 S8        29.97F
WALNUT RIDGE   CLEAR     72  63  73 SW6       29.96S
BLYTHEVILLE    CLEAR     72  66  81 S6        29.97F
SEARCY         CLEAR     72  71  96 W5        29.99S
STUTTGART      CLEAR     75  70  83 S7        29.99S
PINE BLUFF     CLEAR     72  70  93 CALM      29.98F
MONTICELLO     CLEAR     75  70  84 S3        29.99S


...NORTH MISSISSIPPI...

CITY           SKY/WX    TMP DP  RH WIND       PRES   REMARKS
TUPELO         CLEAR     69  65  86 CALM      30.00F
OLIVE BRANCH   CLEAR     66  66 100 CALM      30.00F
CLARKSDALE     PTCLDY    72  70  94 CALM      30.00F
CORINTH        CLEAR     66  64  94 CALM      30.01S FOG
GRENADA        CLEAR     64  64 100 CALM      30.00F
GREENWOOD      CLEAR     68  66  93 CALM      30.00S
COLUMBUS       CLEAR     64  64 100 CALM      30.01F
STARKVILLE     FAIR      63  61  94 CALM      30.01S
GOLDEN TRIANGL CLEAR     64  61  88 CALM      30.02S


...SOUTHEAST MISSOURI...

CITY           SKY/WX    TMP DP  RH WIND       PRES   REMARKS
WEST PLAINS    CLEAR     72  68  87 SW5       29.98S
POPLAR BLUFF   CLEAR     69  62  78 CALM      29.94S
CAPE GIRARDEAU CLEAR     67  64  90 S6        29.96S


...NORTHWEST ALABAMA...

CITY           SKY/WX    TMP DP  RH WIND       PRES   REMARKS
MUSCLE SHOALS  CLEAR     67  64  90 CALM      30.03S FOG


...MIDDLE TENNESSEE...

CITY           SKY/WX    TMP DP  RH WIND       PRES   REMARKS
NASHVILLE      PTCLDY    69  64  84 S3        30.02F
CLARKSVILLE    CLEAR     64  62  93 SE3       30.01S
DICKSON        CLEAR     63  63 100 CALM      30.02F
COLUMBIA       CLEAR     66  64  94 CALM      30.01F
LEWISBURG      CLEAR     64  61  90 CALM      30.03S


...WESTERN KENTUCKY...

CITY           SKY/WX    TMP DP  RH WIND       PRES   REMARKS
PADUCAH        CLEAR     67  63  87 SE3       29.98F
FORT CAMPBELL  CLEAR     67  65  93 CALM      30.01S


...CENTRAL ARKANSAS...

CITY           SKY/WX    TMP DP  RH WIND       PRES   REMARKS
LITTLE ROCK    CLEAR     75  70  84 CALM      29.98S


SKY/WX REPORTED AS FAIR MEANS FEW OR NO CLOUDS BELOW
12 THOUSAND FEET.




USA.gov is the U.S. government's official web portal to all federal, state and local government web resources and services.